Location: Blangy-Tronville
(49.8790°N, 2.4226°E)
Time: 07:27:16
(UTC+00:00)

BREEZE-M DEB (TANK) - Pass Details

Date: 18 November 2025
Orbit: 304 x 15918 km, 49.4° (Epoch: 06 December)

Event Time Altitude Azimuth Distance (km) Brightness Sun altitude
Rises 17:29:13 0° 241° (WSW) 2,049 6.9 -13.7°
Reaches altitude 10° 17:30:36 10° 236° (SW) 1,350 5.5 -13.9°
Maximum altitude 17:33:04 56° 156° (SSE) 626 2.5 -14.3°
Enters shadow 17:35:55 22° 84° (E) 1,725 4.2 -14.8°
